Location: Valley Falls
(35.0169°N, 81.9753°W)
Time: 20:54:11
(UTC+00:00)

X-37B - Pass Details

Date: 09 December 2022
Orbit: 277 x 277 km, 45.0° (Epoch: 01 November)

Event Time Altitude Azimuth Distance (km) Brightness Sun altitude
Rises 23:30:06 0° 280° (W) 1,910 5.2 -14.8°
Reaches altitude 10° 23:32:37 10° 310° (NW) 1,099 3.3 -15.3°
Maximum altitude 23:33:59 14° 344° (NNW) 929 2.5 -15.5°
Enters shadow 23:34:13 14° 350° (N) 934 2.4 -15.6°
